Flag for Germany Weather past 2 weeks in Schweinfurt, Bavaria, Germany

Now
63 °F

Scattered clouds.


Feels Like: 63 °F
Forecast: 43 / 68 °F
Wind: 5 mph from East

Location: Wuerzburg

Current Time: May 22, 2015 at 1:52:47 PM

Latest Report: May 22, 2015 at 1:00 PM


Visibility: 37 mi

Pressure: 30.30 "Hg

Humidity: 35%

Dew point: 35 °F

Location of SchweinfurtLocation

Historic Weather in Schweinfurt — Graph

°F

Schweinfurt temperature yesterday

Maximum temperature yesterday: 63 °F (at 4:00 PM)
Minimum temperature yesterday: 42 °F (at 6:00 AM)
Average temperature yesterday: 53 °F

Past Weeks' High & Low Weather Summary

 TemperatureHumidityPressure
High83 °F (May 12, 3:00 PM)92% (May 11, 5:00 AM)30.38 "Hg (May 11, 5:00 AM)
Low40 °F (May 22, 6:00 AM)26% (May 15, 5:00 PM)29.71 "Hg (May 18, 8:00 PM)
Average59 °F57%30.09 "Hg
* Reported May 7 1:00 PM — May 22 1:00 PM, Schweinfurt, Weather by CustomWeather, © 2015

Note: Actual official high and low records may vary slightly from our data, if they occured in-between our weather recording intervals... More about our weather records

Advertising

Schweinfurt weather history for previous 24 hours

 ConditionsComfort  
Time TempWeatherWind HumidityBarometerVisibility
1:00 PM
Fri, May 22
63 °FScattered clouds.5 mph35%30.30 "Hg37 mi
12:00 PM63 °FPassing clouds.3 mph34%30.31 "Hg37 mi
11:00 AM60 °FScattered clouds.2 mph38%30.33 "Hg28 mi
10:00 AM56 °FScattered clouds.2 mph50%30.35 "Hg25 mi
9:00 AM51 °FPassing clouds.1 mph61%30.37 "Hg22 mi
8:00 AM47 °FScattered clouds.1 mph70%30.37 "Hg22 mi
7:00 AM42 °FScattered clouds.1 mph81%30.38 "Hg19 mi
6:00 AM40 °FPassing clouds.2 mph86%30.37 "Hg16 mi
5:00 AM41 °FClear.2 mph83%30.38 "Hg22 mi
4:00 AM42 °FClear.3 mph79%30.38 "Hg25 mi
3:00 AM43 °FClear.1 mph78%30.37 "Hg25 mi
2:00 AM43 °FClear.1 mph75%30.37 "Hg31 mi
1:00 AM47 °FClear.1 mph65%30.37 "Hg37 mi
12:00 AM49 °FClear.1 mph59%30.36 "Hg37 mi
11:00 PM
Thu, May 21
51 °FClear.2 mph52%30.35 "Hg37 mi
10:00 PM53 °FPassing clouds.2 mph47%30.34 "Hg37 mi
9:00 PM56 °FPassing clouds.1 mph41%30.31 "Hg37 mi
8:00 PM59 °FPassing clouds.3 mph33%30.29 "Hg37 mi
7:00 PM61 °FPassing clouds.5 mph32%30.27 "Hg37 mi
6:00 PM62 °FScattered clouds.5 mph32%30.26 "Hg37 mi
5:00 PM62 °FScattered clouds.6 mph32%30.24 "Hg34 mi
4:00 PM63 °FScattered clouds.7 mph32%30.24 "Hg31 mi
3:00 PM62 °FPartly sunny.5 mph31%30.24 "Hg37 mi
2:00 PM62 °FPartly sunny.3 mph33%30.24 "Hg28 mi
1:00 PM58 °FPartly sunny.2 mph39%30.25 "Hg22 mi
Weather by CustomWeather, © 2015

See weather overviewHow to use our weather pages